| |
Missouri Department of Transportation

Social Media Facebook Twitter Flickr Instagram YouTube RSS

Current METAR Information for All MoDOT Locations 
AWOS Home - General Info for all Airports
Current AWOS for all Airports - Current METAR for all Airports
Glossary - Disclaimer - Other Links


Automated Weather Observation System
Date: 07-28-2016
 
Location Current METAR Record
HANNIBAL METAR KHAE 280825Z AUTO 17004KT 10SM CLR 22/20 A2990 RMK AO2
HARRISONVILLE METAR KLRY 280839Z AUTO 00000KT 10SM CLR 23/22 A2995 RMK AO2
LEBANON  No current data available
MALDEN METAR KMAW 280829Z AUTO 00000KT 10SM SCT003 25/23 A2990 RMK AO2
MARSHALL METAR KMHL 280834Z AUTO 00000KT 5SM BR CLR 24/23 A2992 RMK AO2
MARYVILLE  No current data available
MEXICO  No current data available
MOBERLY  No current data available
NEVADA  No current data available
PIEDMONT  No current data available
SIKESTON  No current data available
SULLIVAN  No current data available
WARSAW  No current data available
About Us
How Do I...
Contact Us
Missouri Department of Transportation
Central Office
105 W. Capitol Avenue
Jefferson City, MO 65102
1-888-ASK-MODOT (275-6636)
1-866-831-6277 (Motor Carrier Services)
Driver's License Offices
horz_bar
| | |
Missouri State Government
© 2013 Missouri Department of Transportation. All Rights Reserved.   Privacy Policy.
 
 
 
 
RSS FeedYoutubeBlogFlickrTwitter Facebook